,,,PA_Meas_PMT16A,,PR_Meas_QMR101_102,,RH_Meas_QMH101,,SR_Meas_QMS101,,TA_Meas_QMH101,,GenWind,,GenWind,
date,time,status,PA,status,PR,status,RH,status,SR,status,TA,status,DirAvg,status,SpdAvg,
2008-10-31, 00:00:04,VALID,1007.92,VALID,0,VALID,93.1715,VALID,0,VALID,22.9834,VALID,4,VALID,0.473047,
2008-10-31, 00:01:04,VALID,1007.88,VALID,0,VALID,93.2707,VALID,0.100563,VALID,22.964,VALID,4,VALID,0.553125,
2008-10-31, 00:02:04,VALID,1007.88,VALID,0,VALID,93.3775,VALID,0,VALID,22.9445,VALID,4,VALID,0.533984,
2008-10-31, 00:03:04,VALID,1007.86,VALID,0,VALID,93.4843,VALID,0,VALID,22.9657,VALID,4,VALID,0.527734,
2008-10-31, 00:04:04,VALID,1007.86,VALID,0,VALID,93.6064,VALID,0,VALID,22.9657,VALID,4,VALID,0.514453,
2008-10-31, 00:05:04,VALID,1007.85,VALID,0,VALID,93.6216,VALID,0.100563,VALID,22.9445,VALID,4,VALID,0.551172,
2008-10-31, 00:06:04,VALID,1007.82,VALID,0,VALID,93.4538,VALID,0,VALID,22.9056,VALID,3,VALID,0.553906,
2008-10-31, 00:07:04,VALID,1007.83,VALID,0,VALID,93.202,VALID,0,VALID,22.8667,VALID,3,VALID,0.551562,
2008-10-31, 00:08:04,VALID,1007.8,VALID,0,VALID,92.7748,VALID,0,VALID,22.826,VALID,358,VALID,0.691016,
2008-10-31, 00:09:04,VALID,1007.81,VALID,0,VALID,92.6909,VALID,0,VALID,22.8278,VALID,358,VALID,0.538672,
2008-10-31, 00:10:04,VALID,1007.8,VALID,0,VALID,92.9961,VALID,0,VALID,22.8861,VALID,358,VALID,0.532422,
2008-10-31, 00:11:04,VALID,1007.79,VALID,0,VALID,93.08,VALID,0,VALID,22.9056,VALID,358,VALID,0.581641,
2008-10-31, 00:12:04,VALID,1007.77,VALID,0,VALID,92.9655,VALID,0,VALID,22.8861,VALID,358,VALID,0.525,
2008-10-31, 00:13:04,VALID,1007.77,VALID,0,VALID,93.0495,VALID,0,VALID,22.8861,VALID,358,VALID,0.524219,
2008-10-31, 00:14:04,VALID,1007.73,VALID,0,VALID,92.9655,VALID,0,VALID,22.8667,VALID,358,VALID,0.505078,
2008-10-31, 00:15:04,VALID,1007.71,VALID,0,VALID,92.9579,VALID,0,VALID,22.8472,VALID,358,VALID,0.556641,
2008-10-31, 00:16:04,VALID,1007.69,VALID,0,VALID,92.874,VALID,0,VALID,22.8278,VALID,358,VALID,0.474219,
2008-10-31, 00:17:04,VALID,1007.67,VALID,0,VALID,92.9579,VALID,0,VALID,22.8472,VALID,358,VALID,0.438672,
2008-10-31, 00:18:04,VALID,1007.67,VALID,0,VALID,92.9732,VALID,0,VALID,22.8278,VALID,358,VALID,0.382422,
2008-10-31, 00:19:04,VALID,1007.66,VALID,0,VALID,93.0342,VALID,0,VALID,22.8472,VALID,358,VALID,0.390234,
2008-10-31, 00:20:04,VALID,1007.61,VALID,0,VALID,92.9732,VALID,0,VALID,22.8278,VALID,358,VALID,0.458594,
2008-10-31, 00:21:04,VALID,1007.59,VALID,0,VALID,92.874,VALID,0,VALID,22.8278,VALID,358,VALID,0.462891,
2008-10-31, 00:22:04,VALID,1007.6,VALID,0,VALID,92.8587,VALID,0,VALID,22.8684,VALID,358,VALID,0.441406,
2008-10-31, 00:23:04,VALID,1007.57,VALID,0,VALID,92.7519,VALID,0,VALID,22.8489,VALID,358,VALID,0.509375,
2008-10-31, 00:24:04,VALID,1007.56,VALID,0,VALID,92.5688,VALID,0,VALID,22.826,VALID,358,VALID,0.594922,
2008-10-31, 00:25:04,VALID,1007.57,VALID,0,VALID,92.5078,VALID,0,VALID,22.8667,VALID,358,VALID,0.590625,
2008-10-31, 00:26:04,VALID,1007.56,VALID,0,VALID,92.401,VALID,0,VALID,22.9073,VALID,358,VALID,0.4625,
2008-10-31, 00:27:04,VALID,1007.56,VALID,0,VALID,92.4773,VALID,0,VALID,22.9251,VALID,358,VALID,0.397266,
2008-10-31, 00:28:04,VALID,1007.54,VALID,0,VALID,92.4239,VALID,0,VALID,22.9463,VALID,358,VALID,0.291406,
2008-10-31, 00:29:04,VALID,1007.51,VALID,0,VALID,92.2561,VALID,0,VALID,22.8879,VALID,358,VALID,0.351563,
2008-10-31, 00:30:04,VALID,1007.51,VALID,0,VALID,92.1492,VALID,0,VALID,22.8667,VALID,19,VALID,0.355859,
2008-10-31, 00:31:04,VALID,1007.48,VALID,0,VALID,91.9967,VALID,0,VALID,22.8879,VALID,19,VALID,0.395312,
2008-10-31, 00:32:04,VALID,1007.47,VALID,0,VALID,91.9585,VALID,0,VALID,22.8667,VALID,19,VALID,0.453125,
2008-10-31, 00:33:04,VALID,1007.46,VALID,0,VALID,91.6076,VALID,0,VALID,22.8684,VALID,19,VALID,0.404297,
2008-10-31, 00:34:04,VALID,1007.49,VALID,0,VALID,90.8829,VALID,0.100563,VALID,22.8472,VALID,19,VALID,0.347656,
2008-10-31, 00:35:04,VALID,1007.48,VALID,0,VALID,90.4938,VALID,0,VALID,22.8861,VALID,19,VALID,0.283203,
2008-10-31, 00:36:04,VALID,1007.46,VALID,0,VALID,90.181,VALID,0,VALID,22.9251,VALID,19,VALID,0.306641,
2008-10-31, 00:37:04,VALID,1007.44,VALID,0,VALID,89.853,VALID,0,VALID,22.964,VALID,19,VALID,0.366406,
2008-10-31, 00:38:04,VALID,1007.42,VALID,0,VALID,89.5936,VALID,0,VALID,23.0029,VALID,20,VALID,0.411328,
2008-10-31, 00:39:04,VALID,1007.4,VALID,0,VALID,89.029,VALID,0,VALID,23.0224,VALID,20,VALID,0.320313,
2008-10-31, 00:40:04,VALID,1007.43,VALID,0,VALID,88.9604,VALID,0.100563,VALID,23.0595,VALID,20,VALID,0.613672,
2008-10-31, 00:41:04,VALID,1007.39,VALID,0,VALID,88.8536,VALID,0,VALID,23.1002,VALID,20,VALID,0.435156,
2008-10-31, 00:42:04,VALID,1007.37,VALID,0,VALID,88.7315,VALID,0,VALID,23.1214,VALID,20,VALID,0.290625,
2008-10-31, 00:43:04,VALID,1007.36,VALID,0,VALID,88.8536,VALID,0,VALID,23.1409,VALID,20,VALID,0.396875,
2008-10-31, 00:44:04,VALID,1007.31,VALID,0,VALID,88.3577,VALID,0,VALID,23.1002,VALID,20,VALID,0.364844,
2008-10-31, 00:45:04,VALID,1007.29,VALID,0,VALID,89.113,VALID,0,VALID,23.1586,VALID,20,VALID,0.394922,
2008-10-31, 00:46:04,VALID,1007.28,VALID,0,VALID,89.8301,VALID,0,VALID,23.1568,VALID,20,VALID,0.417188,
2008-10-31, 00:47:04,VALID,1007.26,VALID,0,VALID,90.0971,VALID,0,VALID,23.1586,VALID,20,VALID,0.346875,
2008-10-31, 00:48:04,VALID,1007.24,VALID,0,VALID,90.4327,VALID,0,VALID,23.1002,VALID,20,VALID,0.335938,
2008-10-31, 00:49:04,VALID,1007.25,VALID,0,VALID,90.7684,VALID,0,VALID,23.0825,VALID,20,VALID,0.491797,
2008-10-31, 00:50:04,VALID,1007.22,VALID,0,VALID,91.1422,VALID,0,VALID,23.0012,VALID,20,VALID,0.471484,
2008-10-31, 00:51:04,VALID,1007.2,VALID,0,VALID,91.4932,VALID,0,VALID,23.0224,VALID,17,VALID,0.408203,
2008-10-31, 00:52:04,VALID,1007.16,VALID,0,VALID,91.8212,VALID,0,VALID,23.0029,VALID,17,VALID,0.417578,
2008-10-31, 00:53:04,VALID,1007.17,VALID,0,VALID,92.073,VALID,0,VALID,22.9834,VALID,15,VALID,0.460547,
2008-10-31, 00:54:04,VALID,1007.17,VALID,0,VALID,92.2561,VALID,0,VALID,22.9852,VALID,2,VALID,0.439453,
2008-10-31, 00:55:04,VALID,1007.15,VALID,0,VALID,92.3934,VALID,0,VALID,22.964,VALID,1,VALID,0.482031,
2008-10-31, 00:56:04,VALID,1007.12,VALID,0,VALID,92.462,VALID,0,VALID,22.9657,VALID,1,VALID,0.388281,
2008-10-31, 00:57:04,VALID,1007.11,VALID,0,VALID,92.5765,VALID,0,VALID,22.9445,VALID,1,VALID,0.259766,
2008-10-31, 00:58:04,VALID,1007.08,VALID,0,VALID,92.729,VALID,0,VALID,22.964,VALID,1,VALID,0.415234,
2008-10-31, 00:59:04,VALID,1007.08,VALID,0,VALID,92.8511,VALID,0,VALID,22.964,VALID,1,VALID,0.270703,
2008-10-31, 01:00:04,VALID,1007.06,VALID,0,VALID,92.8892,VALID,0,VALID,22.9445,VALID,1,VALID,0.357812,
2008-10-31, 01:01:04,VALID,1007.03,VALID,0,VALID,92.9961,VALID,0,VALID,22.964,VALID,1,VALID,0.455078,
2008-10-31, 01:02:04,VALID,1007.02,VALID,0,VALID,93.0723,VALID,0,VALID,22.9852,VALID,1,VALID,0.421484,
2008-10-31, 01:03:04,VALID,1006.98,VALID,0,VALID,93.1257,VALID,0,VALID,22.964,VALID,1,VALID,0.431641,
2008-10-31, 01:04:04,VALID,1006.98,VALID,0,VALID,93.1791,VALID,0,VALID,22.9852,VALID,1,VALID,0.561328,
2008-10-31, 01:05:04,VALID,1006.95,VALID,0,VALID,93.2173,VALID,0,VALID,22.9834,VALID,1,VALID,0.530078,
2008-10-31, 01:06:04,VALID,1006.93,VALID,0,VALID,93.1486,VALID,0,VALID,22.964,VALID,1,VALID,0.535937,
2008-10-31, 01:07:04,VALID,1006.9,VALID,0,VALID,93.0876,VALID,0,VALID,22.9834,VALID,1,VALID,0.610937,
2008-10-31, 01:08:04,VALID,1006.88,VALID,0,VALID,93.0113,VALID,0,VALID,22.964,VALID,1,VALID,0.561719,
2008-10-31, 01:09:04,VALID,1006.88,VALID,0,VALID,93.0723,VALID,0,VALID,22.9834,VALID,1,VALID,0.473047,
2008-10-31, 01:10:04,VALID,1006.83,VALID,0,VALID,92.9426,VALID,0,VALID,22.9834,VALID,1,VALID,0.467578,
2008-10-31, 01:11:04,VALID,1006.82,VALID,0,VALID,92.9732,VALID,0,VALID,23.0046,VALID,1,VALID,0.573047,
2008-10-31, 01:12:04,VALID,1006.77,VALID,0,VALID,92.935,VALID,0,VALID,22.9834,VALID,1,VALID,0.469141,
2008-10-31, 01:13:04,VALID,1006.79,VALID,0,VALID,92.9579,VALID,0,VALID,23.0046,VALID,1,VALID,0,
2008-10-31, 01:14:04,VALID,1006.75,VALID,0,VALID,92.9198,VALID,0,VALID,22.9428,VALID,1,VALID,0.369922,
2008-10-31, 01:15:04,VALID,1006.74,VALID,0,VALID,92.9426,VALID,0,VALID,22.964,VALID,1,VALID,0.347266,
2008-10-31, 01:16:04,VALID,1006.69,VALID,0,VALID,92.9121,VALID,0,VALID,22.964,VALID,1,VALID,0.334766,
2008-10-31, 01:17:04,VALID,1006.67,VALID,0,VALID,92.9503,VALID,0,VALID,22.9251,VALID,1,VALID,0.444141,
2008-10-31, 01:18:04,VALID,1006.65,VALID,0,VALID,92.8816,VALID,0,VALID,22.9268,VALID,1,VALID,0.425,
2008-10-31, 01:19:04,VALID,1006.63,VALID,0,VALID,92.8282,VALID,0,VALID,22.9251,VALID,1,VALID,0.596484,
2008-10-31, 01:20:04,VALID,1006.59,VALID,0,VALID,92.8511,VALID,0,VALID,22.9463,VALID,1,VALID,0.448438,
2008-10-31, 01:21:04,VALID,1006.59,VALID,0,VALID,92.7824,VALID,0,VALID,22.9251,VALID,1,VALID,0.548437,
2008-10-31, 01:22:04,VALID,1006.58,VALID,0,VALID,92.7367,VALID,0,VALID,22.9445,VALID,1,VALID,0.340234,
2008-10-31, 01:23:04,VALID,1006.56,VALID,0,VALID,92.5841,VALID,0,VALID,22.9445,VALID,1,VALID,0.410937,
2008-10-31, 01:24:04,VALID,1006.56,VALID,0,VALID,92.4925,VALID,0,VALID,22.9445,VALID,1,VALID,0.473047,
2008-10-31, 01:25:04,VALID,1006.51,VALID,0,VALID,92.5383,VALID,0,VALID,22.9445,VALID,1,VALID,0.414844,
2008-10-31, 01:26:04,VALID,1006.49,VALID,0,VALID,92.546,VALID,0.100563,VALID,22.9251,VALID,1,VALID,0.424219,
2008-10-31, 01:27:04,VALID,1006.49,VALID,0,VALID,92.4544,VALID,0,VALID,22.9251,VALID,1,VALID,0.544531,
2008-10-31, 01:28:04,VALID,1006.48,VALID,0,VALID,92.4163,VALID,0,VALID,22.9056,VALID,1,VALID,0.472266,
2008-10-31, 01:29:04,VALID,1006.46,VALID,0,VALID,92.0882,VALID,0.100563,VALID,22.9056,VALID,1,VALID,0.464844,
2008-10-31, 01:30:04,VALID,1006.44,VALID,0,VALID,91.9509,VALID,0,VALID,22.9251,VALID,1,VALID,0.443359,
2008-10-31, 01:31:04,VALID,1006.43,VALID,0,VALID,92.073,VALID,0,VALID,22.9445,VALID,1,VALID,0.381641,
2008-10-31, 01:32:04,VALID,1006.43,VALID,0,VALID,92.1187,VALID,0,VALID,22.964,VALID,1,VALID,0.307813,
2008-10-31, 01:33:04,VALID,1006.38,VALID,0,VALID,92.3018,VALID,0.100563,VALID,22.964,VALID,1,VALID,0.398828,
2008-10-31, 01:34:04,VALID,1006.39,VALID,0,VALID,92.2561,VALID,0,VALID,22.9445,VALID,1,VALID,0.526953,
2008-10-31, 01:35:04,VALID,1006.37,VALID,0,VALID,92.2179,VALID,0,VALID,22.9251,VALID,1,VALID,0.345703,
2008-10-31, 01:36:04,VALID,1006.34,VALID,0,VALID,92.0196,VALID,0,VALID,22.8861,VALID,1,VALID,0.483203,
2008-10-31, 01:37:04,VALID,1006.36,VALID,0,VALID,92.0501,VALID,0,VALID,22.9073,VALID,1,VALID,0.477734,
2008-10-31, 01:38:04,VALID,1006.32,VALID,0,VALID,91.8899,VALID,0,VALID,22.8667,VALID,1,VALID,0.391406,
2008-10-31, 01:39:04,VALID,1006.3,VALID,0,VALID,91.9585,VALID,0,VALID,22.8861,VALID,1,VALID,0.347266,
2008-10-31, 01:40:04,VALID,1006.3,VALID,0,VALID,92.0653,VALID,0,VALID,22.8667,VALID,1,VALID,0.381641,
2008-10-31, 01:41:04,VALID,1006.27,VALID,0,VALID,92.1874,VALID,0,VALID,22.8472,VALID,1,VALID,0.161719,
2008-10-31, 01:42:04,VALID,1006.26,VALID,0,VALID,92.3247,VALID,0,VALID,22.8472,VALID,1,VALID,0.277344,
2008-10-31, 01:43:04,VALID,1006.27,VALID,0,VALID,92.3171,VALID,0,VALID,22.8278,VALID,1,VALID,0.0355469,
2008-10-31, 01:44:04,VALID,1006.26,VALID,0,VALID,92.5841,VALID,0,VALID,22.8684,VALID,1,VALID,0.0433594,
2008-10-31, 01:45:04,VALID,1006.26,VALID,0,VALID,92.462,VALID,0,VALID,22.8083,VALID,1,VALID,0,
2008-10-31, 01:46:04,VALID,1006.25,VALID,0,VALID,92.5307,VALID,0,VALID,22.8083,VALID,3,VALID,0,
2008-10-31, 01:47:04,VALID,1006.25,VALID,0,VALID,92.3934,VALID,0,VALID,22.8083,VALID,19,VALID,0.046875,
2008-10-31, 01:48:04,VALID,1006.26,VALID,0,VALID,92.2866,VALID,0,VALID,22.8083,VALID,29,VALID,0.259766,
2008-10-31, 01:49:04,VALID,1006.24,VALID,0,VALID,92.3781,VALID,0,VALID,22.8278,VALID,32,VALID,0.244922,
2008-10-31, 01:50:04,VALID,1006.24,VALID,0,VALID,92.3018,VALID,0,VALID,22.8278,VALID,32,VALID,0.354688,
2008-10-31, 01:51:04,VALID,1006.23,VALID,0,VALID,92.2866,VALID,0.100563,VALID,22.826,VALID,32,VALID,0,
2008-10-31, 01:52:04,VALID,1006.2,VALID,0,VALID,92.2103,VALID,0,VALID,22.8667,VALID,32,VALID,0,
2008-10-31, 01:53:04,VALID,1006.24,VALID,0,VALID,92.2637,VALID,0,VALID,22.8667,VALID,32,VALID,0,
2008-10-31, 01:54:04,VALID,1006.18,VALID,0,VALID,92.401,VALID,0.100563,VALID,22.8861,VALID,32,VALID,0,
2008-10-31, 01:55:04,VALID,1006.15,VALID,0,VALID,92.4239,VALID,0,VALID,22.8667,VALID,32,VALID,0,
2008-10-31, 01:56:04,VALID,1006.17,VALID,0,VALID,92.4849,VALID,0,VALID,22.8667,VALID,32,VALID,0,
2008-10-31, 01:57:04,VALID,1006.17,VALID,0,VALID,92.5078,VALID,0,VALID,22.8861,VALID,32,VALID,0,
2008-10-31, 01:58:04,VALID,1006.14,VALID,0,VALID,92.4849,VALID,0.100563,VALID,22.8455,VALID,32,VALID,0,
2008-10-31, 01:59:04,VALID,1006.14,VALID,0,VALID,92.4391,VALID,0,VALID,22.8879,VALID,32,VALID,0,
2008-10-31, 02:00:04,VALID,1006.13,VALID,0,VALID,92.4849,VALID,0,VALID,22.8667,VALID,32,VALID,0,
2008-10-31, 02:01:04,VALID,1006.15,VALID,0,VALID,92.607,VALID,0.100563,VALID,22.8667,VALID,32,VALID,0,
2008-10-31, 02:02:04,VALID,1006.16,VALID,0,VALID,92.6375,VALID,0,VALID,22.8861,VALID,32,VALID,0,
2008-10-31, 02:03:04,VALID,1006.16,VALID,0,VALID,92.6146,VALID,0.100563,VALID,22.8861,VALID,32,VALID,0,
2008-10-31, 02:04:04,VALID,1006.12,VALID,0,VALID,92.4925,VALID,0.100563,VALID,22.9056,VALID,41,VALID,0.399219,
2008-10-31, 02:05:04,VALID,1006.11,VALID,0,VALID,92.3705,VALID,0.100563,VALID,22.9056,VALID,47,VALID,0.484766,
2008-10-31, 02:06:04,VALID,1006.11,VALID,0,VALID,92.1645,VALID,0,VALID,22.9852,VALID,52,VALID,0.466016,
2008-10-31, 02:07:04,VALID,1006.11,VALID,0,VALID,91.8899,VALID,0,VALID,23.0046,VALID,57,VALID,0.482422,
2008-10-31, 02:08:04,VALID,1006.07,VALID,0,VALID,91.4932,VALID,0,VALID,23.0613,VALID,63,VALID,0.444922,
2008-10-31, 02:09:04,VALID,1006.07,VALID,0,VALID,91.1346,VALID,0.100563,VALID,23.079,VALID,70,VALID,0.500391,
2008-10-31, 02:10:04,VALID,1006.07,VALID,0,VALID,90.8447,VALID,0,VALID,23.1409,VALID,70,VALID,0.302734,
2008-10-31, 02:11:04,VALID,1006.06,VALID,0,VALID,90.7379,VALID,0.100563,VALID,23.1603,VALID,70,VALID,0.0457031,
2008-10-31, 02:12:04,VALID,1006.05,VALID,0,VALID,90.6235,VALID,0,VALID,23.1374,VALID,70,VALID,0.306641,
2008-10-31, 02:13:04,VALID,1006.03,VALID,0,VALID,90.6616,VALID,0,VALID,23.1586,VALID,70,VALID,0.253125,
2008-10-31, 02:14:04,VALID,1006.04,VALID,0,VALID,90.715,VALID,0,VALID,23.1798,VALID,70,VALID,0,
2008-10-31, 02:15:04,VALID,1006.02,VALID,0,VALID,90.6387,VALID,0,VALID,23.1197,VALID,70,VALID,0,
2008-10-31, 02:16:04,VALID,1006.01,VALID,0,VALID,90.6006,VALID,0,VALID,23.1197,VALID,70,VALID,0,
2008-10-31, 02:17:04,VALID,1006.01,VALID,0,VALID,90.2725,VALID,0,VALID,23.1214,VALID,70,VALID,0,
2008-10-31, 02:18:04,VALID,1005.95,VALID,0,VALID,90.1886,VALID,0,VALID,23.0807,VALID,70,VALID,0,
2008-10-31, 02:19:04,VALID,1005.95,VALID,0,VALID,90.2191,VALID,0,VALID,23.1374,VALID,70,VALID,0.114063,
2008-10-31, 02:20:04,VALID,1005.96,VALID,0,VALID,90.0742,VALID,0,VALID,23.1798,VALID,70,VALID,0,
2008-10-31, 02:21:04,VALID,1005.95,VALID,0,VALID,89.8301,VALID,0,VALID,23.1586,VALID,70,VALID,0,
2008-10-31, 02:22:04,VALID,1005.95,VALID,0,VALID,89.5936,VALID,0,VALID,23.2187,VALID,70,VALID,0.510156,
2008-10-31, 02:23:04,VALID,1005.94,VALID,0,VALID,89.296,VALID,0,VALID,23.217,VALID,70,VALID,0.242188,
2008-10-31, 02:24:04,VALID,1005.93,VALID,0,VALID,89.174,VALID,0,VALID,23.2152,VALID,70,VALID,0.171875,
2008-10-31, 02:25:04,VALID,1005.94,VALID,0,VALID,88.8154,VALID,0,VALID,23.2559,VALID,71,VALID,0.476953,
2008-10-31, 02:26:04,VALID,1005.9,VALID,0,VALID,88.6018,VALID,0,VALID,23.316,VALID,77,VALID,0.35625,
2008-10-31, 02:27:04,VALID,1005.89,VALID,0,VALID,88.1212,VALID,0,VALID,23.3532,VALID,77,VALID,0.15,
2008-10-31, 02:28:04,VALID,1005.88,VALID,0,VALID,87.8771,VALID,0,VALID,23.4116,VALID,77,VALID,0.405078,
2008-10-31, 02:29:04,VALID,1005.89,VALID,0,VALID,87.6253,VALID,0,VALID,23.4505,VALID,77,VALID,0.133203,
2008-10-31, 02:30:04,VALID,1005.88,VALID,0,VALID,87.4727,VALID,0,VALID,23.47,VALID,75,VALID,0.469141,
2008-10-31, 02:31:04,VALID,1005.87,VALID,0,VALID,87.2744,VALID,0,VALID,23.5089,VALID,35,VALID,0.565625,
2008-10-31, 02:32:04,VALID,1005.83,VALID,0,VALID,87.2362,VALID,0,VALID,23.5089,VALID,41,VALID,0.287109,
2008-10-31, 02:33:04,VALID,1005.81,VALID,0,VALID,87.2057,VALID,0,VALID,23.5691,VALID,92,VALID,0.371094,
2008-10-31, 02:34:04,VALID,1005.77,VALID,0,VALID,87.1676,VALID,0,VALID,23.5673,VALID,91,VALID,0.222656,
2008-10-31, 02:35:04,VALID,1005.78,VALID,0,VALID,87.0837,VALID,0,VALID,23.5885,VALID,90,VALID,0.229297,
2008-10-31, 02:36:04,VALID,1005.75,VALID,0,VALID,87.1294,VALID,0,VALID,23.5868,VALID,354,VALID,0.473437,
2008-10-31, 02:37:04,VALID,1005.72,VALID,0,VALID,87.1218,VALID,0,VALID,23.6062,VALID,16,VALID,0.437891,
2008-10-31, 02:38:04,VALID,1005.71,VALID,0,VALID,87.2439,VALID,0,VALID,23.6469,VALID,23,VALID,0.302344,
2008-10-31, 02:39:04,VALID,1005.71,VALID,0,VALID,87.0226,VALID,0,VALID,23.6257,VALID,23,VALID,0.207813,
2008-10-31, 02:40:04,VALID,1005.68,VALID,0,VALID,86.9387,VALID,0,VALID,23.6452,VALID,23,VALID,0.29375,
2008-10-31, 02:41:04,VALID,1005.68,VALID,0,VALID,86.9235,VALID,0,VALID,23.6646,VALID,23,VALID,0.161328,
2008-10-31, 02:42:04,VALID,1005.67,VALID,0,VALID,86.9082,VALID,0,VALID,23.6841,VALID,25,VALID,0,
2008-10-31, 02:43:04,VALID,1005.66,VALID,0,VALID,87.0074,VALID,0,VALID,23.6452,VALID,25,VALID,0,
2008-10-31, 02:44:04,VALID,1005.66,VALID,0,VALID,87.221,VALID,0,VALID,23.6859,VALID,26,VALID,0,
2008-10-31, 02:45:04,VALID,1005.65,VALID,0,VALID,87.0684,VALID,0,VALID,23.6452,VALID,30,VALID,0.401953,
2008-10-31, 02:46:04,VALID,1005.67,VALID,0,VALID,87.1447,VALID,0,VALID,23.6452,VALID,36,VALID,0,
2008-10-31, 02:47:04,VALID,1005.65,VALID,0,VALID,87.1752,VALID,0,VALID,23.6044,VALID,36,VALID,0.113672,
2008-10-31, 02:48:04,VALID,1005.65,VALID,0,VALID,87.2744,VALID,0,VALID,23.6469,VALID,36,VALID,0.03125,
2008-10-31, 02:49:04,VALID,1005.66,VALID,0,VALID,87.282,VALID,0,VALID,23.6044,VALID,36,VALID,0.155469,
2008-10-31, 02:50:04,VALID,1005.64,VALID,0,VALID,87.3659,VALID,0,VALID,23.6062,VALID,49,VALID,0.453125,
2008-10-31, 02:51:04,VALID,1005.62,VALID,0,VALID,87.4193,VALID,0,VALID,23.6469,VALID,53,VALID,0.0832031,
2008-10-31, 02:52:04,VALID,1005.63,VALID,0,VALID,87.427,VALID,0,VALID,23.6452,VALID,53,VALID,0.158594,
2008-10-31, 02:53:04,VALID,1005.63,VALID,0,VALID,87.4041,VALID,0,VALID,23.6452,VALID,53,VALID,0,
2008-10-31, 02:54:04,VALID,1005.63,VALID,0,VALID,87.4499,VALID,0,VALID,23.6664,VALID,53,VALID,0.0527344,
2008-10-31, 02:55:04,VALID,1005.63,VALID,0,VALID,87.5261,VALID,0,VALID,23.6257,VALID,53,VALID,0,
2008-10-31, 02:56:04,VALID,1005.64,VALID,0,VALID,87.6024,VALID,0,VALID,23.6452,VALID,53,VALID,0.183203,
2008-10-31, 02:57:04,VALID,1005.65,VALID,0,VALID,87.7703,VALID,0,VALID,23.6452,VALID,53,VALID,0.040625,
2008-10-31, 02:58:04,VALID,1005.64,VALID,0,VALID,87.8542,VALID,0,VALID,23.6062,VALID,53,VALID,0,
2008-10-31, 02:59:04,VALID,1005.62,VALID,0,VALID,87.9686,VALID,0,VALID,23.5868,VALID,53,VALID,0,
2008-10-31, 03:00:04,VALID,1005.66,VALID,0,VALID,87.9762,VALID,0,VALID,23.5655,VALID,53,VALID,0.218359,
2008-10-31, 03:01:04,VALID,1005.65,VALID,0,VALID,87.9839,VALID,0,VALID,23.5478,VALID,53,VALID,0,
2008-10-31, 03:02:04,VALID,1005.65,VALID,0,VALID,88.0678,VALID,0,VALID,23.5885,VALID,53,VALID,0,
2008-10-31, 03:03:04,VALID,1005.67,VALID,0,VALID,88.2967,VALID,0,VALID,23.546,VALID,53,VALID,0,
2008-10-31, 03:04:04,VALID,1005.66,VALID,0,VALID,88.289,VALID,0,VALID,23.5691,VALID,53,VALID,0,
2008-10-31, 03:05:04,VALID,1005.71,VALID,0,VALID,88.5789,VALID,0,VALID,23.5284,VALID,53,VALID,0.212109,
2008-10-31, 03:06:04,VALID,1005.71,VALID,0,VALID,88.8154,VALID,0,VALID,23.5496,VALID,53,VALID,0.197266,
2008-10-31, 03:07:04,VALID,1005.72,VALID,0,VALID,88.9299,VALID,0,VALID,23.5478,VALID,53,VALID,0.203906,
2008-10-31, 03:08:04,VALID,1005.72,VALID,0,VALID,89.0214,VALID,0,VALID,23.5284,VALID,53,VALID,0,
2008-10-31, 03:09:04,VALID,1005.74,VALID,0,VALID,89.1053,VALID,0,VALID,23.5478,VALID,53,VALID,0,
2008-10-31, 03:10:04,VALID,1005.7,VALID,0,VALID,89.3266,VALID,0,VALID,23.5284,VALID,53,VALID,0,
2008-10-31, 03:11:04,VALID,1005.72,VALID,0,VALID,89.38,VALID,0,VALID,23.5089,VALID,53,VALID,0.0660156,
2008-10-31, 03:12:04,VALID,1005.74,VALID,0,VALID,89.4944,VALID,0,VALID,23.5302,VALID,53,VALID,0,
2008-10-31, 03:13:04,VALID,1005.73,VALID,0,VALID,89.5936,VALID,0,VALID,23.5302,VALID,53,VALID,0,
2008-10-31, 03:14:04,VALID,1005.73,VALID,0,VALID,89.8682,VALID,0,VALID,23.4877,VALID,53,VALID,0,
2008-10-31, 03:15:04,VALID,1005.71,VALID,0,VALID,89.8911,VALID,0,VALID,23.5089,VALID,53,VALID,0,
2008-10-31, 03:16:04,VALID,1005.71,VALID,0,VALID,90.0284,VALID,0,VALID,23.4682,VALID,53,VALID,0,
2008-10-31, 03:17:04,VALID,1005.72,VALID,0,VALID,90.1352,VALID,0.100563,VALID,23.47,VALID,53,VALID,0,
2008-10-31, 03:18:04,VALID,1005.7,VALID,0,VALID,90.2039,VALID,0,VALID,23.47,VALID,53,VALID,0,
2008-10-31, 03:19:04,VALID,1005.69,VALID,0,VALID,90.2191,VALID,0,VALID,23.4311,VALID,53,VALID,0.119531,
2008-10-31, 03:20:04,VALID,1005.68,VALID,0,VALID,90.4175,VALID,0,VALID,23.4523,VALID,53,VALID,0.343359,
2008-10-31, 03:21:04,VALID,1005.65,VALID,0,VALID,90.4556,VALID,0,VALID,23.3921,VALID,52,VALID,0.191016,
2008-10-31, 03:22:04,VALID,1005.66,VALID,0,VALID,90.6158,VALID,0,VALID,23.3921,VALID,52,VALID,0.247656,
2008-10-31, 03:23:04,VALID,1005.66,VALID,0,VALID,90.4785,VALID,0,VALID,23.3727,VALID,30,VALID,0.414063,
2008-10-31, 03:24:04,VALID,1005.68,VALID,0,VALID,90.3259,VALID,0,VALID,23.3727,VALID,30,VALID,0.103516,
2008-10-31, 03:25:04,VALID,1005.65,VALID,0,VALID,90.2039,VALID,0,VALID,23.3921,VALID,30,VALID,0.202734,
2008-10-31, 03:26:04,VALID,1005.66,VALID,0,VALID,89.914,VALID,0,VALID,23.4116,VALID,30,VALID,0.137891,
2008-10-31, 03:27:04,VALID,1005.66,VALID,0,VALID,90.1429,VALID,0,VALID,23.4718,VALID,30,VALID,0.348437,
2008-10-31, 03:28:04,VALID,1005.65,VALID,0,VALID,90.1734,VALID,0,VALID,23.47,VALID,30,VALID,0.230859,
2008-10-31, 03:29:04,VALID,1005.64,VALID,0,VALID,90.1276,VALID,0.100563,VALID,23.4293,VALID,30,VALID,0.0105469,
2008-10-31, 03:30:04,VALID,1005.65,VALID,0,VALID,90.2878,VALID,0,VALID,23.4311,VALID,30,VALID,0,
2008-10-31, 03:31:04,VALID,1005.66,VALID,0,VALID,90.4099,VALID,0,VALID,23.4523,VALID,30,VALID,0,
2008-10-31, 03:32:04,VALID,1005.68,VALID,0,VALID,90.5548,VALID,0,VALID,23.4311,VALID,30,VALID,0,
2008-10-31, 03:33:04,VALID,1005.71,VALID,0,VALID,90.6845,VALID,0,VALID,23.3921,VALID,30,VALID,0,
2008-10-31, 03:34:04,VALID,1005.71,VALID,0,VALID,90.7455,VALID,0,VALID,23.3514,VALID,30,VALID,0,
2008-10-31, 03:35:04,VALID,1005.73,VALID,0,VALID,91.0736,VALID,0,VALID,23.3532,VALID,30,VALID,0.211719,
2008-10-31, 03:36:04,VALID,1005.72,VALID,0,VALID,91.1804,VALID,0,VALID,23.3337,VALID,30,VALID,0.244531,
2008-10-31, 03:37:04,VALID,1005.72,VALID,0,VALID,91.4932,VALID,0,VALID,23.2948,VALID,30,VALID,0,
2008-10-31, 03:38:04,VALID,1005.74,VALID,0,VALID,91.8365,VALID,0.100563,VALID,23.3143,VALID,30,VALID,0,
2008-10-31, 03:39:04,VALID,1005.76,VALID,0,VALID,92.0272,VALID,0,VALID,23.2559,VALID,30,VALID,0.0046875,
2008-10-31, 03:40:04,VALID,1005.73,VALID,0,VALID,92.0882,VALID,0,VALID,23.2364,VALID,30,VALID,0.146094,
2008-10-31, 03:41:04,VALID,1005.75,VALID,0,VALID,92.0958,VALID,0,VALID,23.178,VALID,30,VALID,0.255859,
2008-10-31, 03:42:04,VALID,1005.77,VALID,0,VALID,92.1492,VALID,0,VALID,23.1391,VALID,30,VALID,0.510938,
2008-10-31, 03:43:04,VALID,1005.75,VALID,0,VALID,92.2027,VALID,0,VALID,23.1214,VALID,30,VALID,0.323047,
2008-10-31, 03:44:04,VALID,1005.74,VALID,0,VALID,92.2561,VALID,0.100563,VALID,23.0613,VALID,30,VALID,0.324609,
2008-10-31, 03:45:04,VALID,1005.81,VALID,0,VALID,92.3476,VALID,0,VALID,23.0206,VALID,30,VALID,0.0703125,
2008-10-31, 03:46:04,VALID,1005.8,VALID,0,VALID,92.5917,VALID,0,VALID,23.0224,VALID,30,VALID,0.1125,
2008-10-31, 03:47:04,VALID,1005.79,VALID,0,VALID,92.6985,VALID,0,VALID,23.0029,VALID,30,VALID,0.0132813,
2008-10-31, 03:48:04,VALID,1005.8,VALID,0,VALID,92.8358,VALID,0,VALID,23.0029,VALID,30,VALID,0.125391,